Location: Clarks Summit,Pa.
(41.5000°N, 75.6000°W)
Time: 18:53:59
(UTC-05:00)

Hubble Space Telescope - Visible Passes

Search period start: 28 November 2023 00:00
Search period end: 08 December 2023 00:00
Orbit: 519 x 523 km, 28.5° (Epoch: 28 November)

Date Brightness Start Highest point End Pass type
(mag) Time Alt. Az. Time Alt. Az. Time Alt. Az.
28 Nov 3.3 17:11:34 10° S 17:12:53 11° S 17:14:12 10° SSE visible
28 Nov 3.3 18:51:15 10° SSW 18:52:52 12° S 18:52:57 12° S visible
29 Nov 3.3 18:35:00 10° SSW 18:36:26 12° S 18:37:39 10° S visible
30 Nov 3.4 18:18:50 10° SSW 18:19:59 11° S 18:21:09 10° S visible
01 Dec 3.6 18:02:53 10° SSW 18:03:32 10° S 18:04:12 10° S visible
